User: anonymous   Login
Location: Hohe Wand Kleine Kanzel
(47.8330°N, 16.0170°E)
Time: 19:02:15
(UTC+02:00)
Language:

SR - Orbit

View from above orbital plane
View from above orbital plane
View from above satellite
View from above satellite

Ground track
Ground track

The orbit data is extracted from the following two-line orbital elements,

1 00046U 60007B   21208.94401991  .00000109  00000-0  44437-4 0  9999
2 00046  66.6907  30.7547 0211587 190.9367 168.7107 14.49419176197879
Epoch (UTC): 27 July 2021 22:39:23
Eccentricity: 0.0211587
inclination: 66.6907°
perigee height: 577 km
apogee height: 878 km
right ascension of ascending node: 30.7547°
argument of perigee: 190.9367°
revolutions per day: 14.49419176
mean anomaly at epoch: 168.7107°
orbit number at epoch: 19787

The dashed part of the orbit path shows where the satellite is in the earth's shadow,  

DLR